contact:dominique.lefevre@mio.osupytheas.fr, maurice.libes@osupytheas.fr, didier.mallarino@osupytheas.fr
Project:EMSO http://www.emso-fr.org/EMSO-France
Depth: 2436.0 m
Title:EMSO Ligure Ouest : Data MII capteur CSTAR
DateTime,Latitude,Longitude,Instrument_Serial,Reference_Counts,Signal_Counts,Corrected_Signal_raw_counts,Calculated_Beam_c_inverse_meters,Internal_thermistor_counts
DateTime,Latitude,Longitude,Instrument_Serial,Reference_Counts,Signal_Counts,Corrected_Signal_raw_counts,Calculated_Beam_c_inverse_meters,Internal_thermistor_counts
2020-02-01T00:01:01,42.805,6.029,CST-1368DR,6861,9619,15248,0.095,551
2020-02-01T00:04:03,42.805,6.029,CST-1368DR,6861,9617,15246,0.096,551
2020-02-01T00:07:04,42.805,6.029,CST-1368DR,6861,9618,15248,0.095,551
2020-02-01T00:10:06,42.805,6.029,CST-1368DR,6861,9618,15248,0.095,551
2020-02-01T00:13:08,42.805,6.029,CST-1368DR,6861,9618,15247,0.096,551
2020-02-01T00:16:09,42.805,6.029,CST-1368DR,6861,9619,15248,0.095,551
2020-02-01T00:19:11,42.805,6.029,CST-1368DR,6861,9618,15247,0.096,551
2020-02-01T00:22:13,42.805,6.029,CST-1368DR,6861,9618,15247,0.096,551
2020-02-01T00:25:14,42.805,6.029,CST-1368DR,6861,9617,15246,0.096,551
2020-02-01T00:28:16,42.805,6.029,CST-1368DR,6861,9618,15247,0.096,551
2020-02-01T00:31:17,42.805,6.029,CST-1368DR,6861,9617,15246,0.096,551
2020-02-01T00:34:19,42.805,6.029,CST-1368DR,6861,9618,15247,0.096,551
2020-02-01T00:37:21,42.805,6.029,CST-1368DR,6861,9618,15247,0.096,551
2020-02-01T00:40:22,42.805,6.029,CST-1368DR,6861,9616,15244,0.096,551
2020-02-01T00:43:24,42.805,6.029,CST-1368DR,6861,9617,15246,0.096,551
2020-02-01T00:46:26,42.805,6.029,CST-1368DR,6860,9618,15249,0.095,551
2020-02-01T00:49:27,42.805,6.029,CST-1368DR,6860,9618,15249,0.095,550
2020-02-01T00:52:29,42.805,6.029,CST-1368DR,6860,9618,15249,0.095,551
2020-02-01T00:55:31,42.805,6.029,CST-1368DR,6860,9617,15248,0.095,551
2020-02-01T00:58:32,42.805,6.029,CST-1368DR,6860,9619,15250,0.095,551
2020-02-01T01:01:34,42.805,6.029,CST-1368DR,6860,9616,15247,0.096,551
2020-02-01T01:04:36,42.805,6.029,CST-1368DR,6860,9618,15249,0.095,551
2020-02-01T01:07:37,42.805,6.029,CST-1368DR,6860,9618,15249,0.095,551
2020-02-01T01:10:39,42.805,6.029,CST-1368DR,6860,9618,15249,0.095,551
2020-02-01T01:13:41,42.805,6.029,CST-1368DR,6860,9618,15250,0.095,551
2020-02-01T01:16:42,42.805,6.029,CST-1368DR,6860,9617,15247,0.096,551
2020-02-01T01:19:44,42.805,6.029,CST-1368DR,6860,9617,15248,0.095,551
2020-02-01T01:22:46,42.805,6.029,CST-1368DR,6860,9617,15248,0.095,551
2020-02-01T01:25:47,42.805,6.029,CST-1368DR,6860,9617,15247,0.096,551
2020-02-01T01:28:49,42.805,6.029,CST-1368DR,6860,9618,15249,0.095,551
2020-02-01T01:31:50,42.805,6.029,CST-1368DR,6860,9617,15248,0.095,550
2020-02-01T01:34:52,42.805,6.029,CST-1368DR,6860,9617,15248,0.095,551
2020-02-01T01:37:54,42.805,6.029,CST-1368DR,6860,9617,15248,0.095,551
2020-02-01T01:40:55,42.805,6.029,CST-1368DR,6860,9617,15247,0.096,551
2020-02-01T01:43:57,42.805,6.029,CST-1368DR,6860,9617,15248,0.095,551
2020-02-01T01:46:59,42.805,6.029,CST-1368DR,6860,9617,15248,0.095,551
2020-02-01T01:50:00,42.805,6.029,CST-1368DR,6860,9617,15248,0.095,551
2020-02-01T01:53:02,42.805,6.029,CST-1368DR,6860,9617,15248,0.095,551
2020-02-01T01:56:04,42.805,6.029,CST-1368DR,6860,9617,15248,0.095,551
2020-02-01T01:59:05,42.805,6.029,CST-1368DR,6860,9618,15250,0.095,551
2020-02-01T02:02:07,42.805,6.029,CST-1368DR,6860,9618,15250,0.095,551
2020-02-01T02:05:09,42.805,6.029,CST-1368DR,6860,9618,15250,0.095,551
2020-02-01T02:08:10,42.805,6.029,CST-1368DR,6860,9617,15248,0.095,550
2020-02-01T02:11:12,42.805,6.029,CST-1368DR,6860,9618,15249,0.095,551
2020-02-01T02:14:14,42.805,6.029,CST-1368DR,6860,9617,15248,0.095,551
2020-02-01T02:17:15,42.805,6.029,CST-1368DR,6860,9617,15248,0.095,551
2020-02-01T02:20:17,42.805,6.029,CST-1368DR,6860,9619,15250,0.095,551
2020-02-01T02:23:19,42.805,6.029,CST-1368DR,6860,9618,15249,0.095,551
2020-02-01T02:26:20,42.805,6.029,CST-1368DR,6860,9618,15249,0.095,551
2020-02-01T02:29:22,42.805,6.029,CST-1368DR,6860,9618,15249,0.095,551
2020-02-01T02:32:24,42.805,6.029,CST-1368DR,6860,9617,15248,0.095,551
2020-02-01T02:35:25,42.805,6.029,CST-1368DR,6860,9617,15248,0.095,551
2020-02-01T02:38:27,42.805,6.029,CST-1368DR,6860,9617,15248,0.095,551
2020-02-01T02:41:29,42.805,6.029,CST-1368DR,6860,9618,15249,0.095,550
2020-02-01T02:44:30,42.805,6.029,CST-1368DR,6860,9619,15250,0.095,551
2020-02-01T02:47:32,42.805,6.029,CST-1368DR,6860,9619,15250,0.095,551
2020-02-01T02:50:34,42.805,6.029,CST-1368DR,6860,9618,15249,0.095,551
2020-02-01T02:53:35,42.805,6.029,CST-1368DR,6860,9617,15248,0.095,550
2020-02-01T02:56:37,42.805,6.029,CST-1368DR,6860,9617,15248,0.095,551
2020-02-01T02:59:38,42.805,6.029,CST-1368DR,6860,9618,15250,0.095,551
2020-02-01T03:02:40,42.805,6.029,CST-1368DR,6860,9618,15249,0.095,551
2020-02-01T03:05:42,42.805,6.029,CST-1368DR,6860,9616,15247,0.096,551
2020-02-01T03:08:43,42.805,6.029,CST-1368DR,6860,9618,15250,0.095,551
2020-02-01T03:11:45,42.805,6.029,CST-1368DR,6860,9617,15247,0.096,551
2020-02-01T03:14:47,42.805,6.029,CST-1368DR,6860,9618,15249,0.095,551
2020-02-01T03:17:48,42.805,6.029,CST-1368DR,6860,9616,15246,0.096,551
2020-02-01T03:20:50,42.805,6.029,CST-1368DR,6860,9616,15246,0.096,551
2020-02-01T03:23:51,42.805,6.029,CST-1368DR,6860,9617,15248,0.095,551
2020-02-01T03:26:53,42.805,6.029,CST-1368DR,6860,9617,15248,0.095,551
2020-02-01T03:29:55,42.805,6.029,CST-1368DR,6860,9617,15248,0.095,551
2020-02-01T03:32:56,42.805,6.029,CST-1368DR,6860,9616,15247,0.096,551
2020-02-01T03:35:58,42.805,6.029,CST-1368DR,6860,9616,15246,0.096,551
2020-02-01T03:39:00,42.805,6.029,CST-1368DR,6860,9616,15246,0.096,551
2020-02-01T03:42:02,42.805,6.029,CST-1368DR,6860,9617,15248,0.095,551
2020-02-01T03:45:03,42.805,6.029,CST-1368DR,6860,9617,15248,0.095,551
2020-02-01T03:48:05,42.805,6.029,CST-1368DR,6860,9618,15249,0.095,551
2020-02-01T03:51:07,42.805,6.029,CST-1368DR,6860,9617,15248,0.095,550
2020-02-01T03:54:08,42.805,6.029,CST-1368DR,6860,9616,15247,0.096,551
2020-02-01T03:57:10,42.805,6.029,CST-1368DR,6860,9617,15248,0.095,551
2020-02-01T04:00:11,42.805,6.029,CST-1368DR,6860,9616,15246,0.096,551
2020-02-01T04:03:13,42.805,6.029,CST-1368DR,6860,9617,15248,0.095,551
2020-02-01T04:06:15,42.805,6.029,CST-1368DR,6860,9616,15246,0.096,551
2020-02-01T04:09:16,42.805,6.029,CST-1368DR,6860,9616,15246,0.096,551
2020-02-01T04:12:18,42.805,6.029,CST-1368DR,6860,9616,15247,0.096,551
2020-02-01T04:15:20,42.805,6.029,CST-1368DR,6860,9615,15245,0.096,550
2020-02-01T04:18:22,42.805,6.029,CST-1368DR,6860,9616,15246,0.096,551
2020-02-01T04:21:23,42.805,6.029,CST-1368DR,6860,9616,15247,0.096,551
2020-02-01T04:24:25,42.805,6.029,CST-1368DR,6860,9615,15245,0.096,551
2020-02-01T04:27:26,42.805,6.029,CST-1368DR,6860,9617,15248,0.095,551
2020-02-01T04:30:28,42.805,6.029,CST-1368DR,6860,9617,15247,0.096,551
2020-02-01T04:33:30,42.805,6.029,CST-1368DR,6860,9616,15246,0.096,551
2020-02-01T04:36:31,42.805,6.029,CST-1368DR,6860,9617,15248,0.095,551
2020-02-01T04:39:33,42.805,6.029,CST-1368DR,6859,9617,15250,0.095,551
2020-02-01T04:42:35,42.805,6.029,CST-1368DR,6860,9616,15246,0.096,551
2020-02-01T04:45:36,42.805,6.029,CST-1368DR,6859,9617,15250,0.095,551
2020-02-01T04:48:38,42.805,6.029,CST-1368DR,6860,9617,15248,0.095,551
2020-02-01T04:51:40,42.805,6.029,CST-1368DR,6860,9617,15248,0.095,551
2020-02-01T04:54:41,42.805,6.029,CST-1368DR,6860,9616,15246,0.096,551
2020-02-01T04:57:43,42.805,6.029,CST-1368DR,6860,9616,15246,0.096,551
2020-02-01T05:00:45,42.805,6.029,CST-1368DR,6859,9616,15248,0.095,551
2020-02-01T05:03:46,42.805,6.029,CST-1368DR,6859,9616,15248,0.095,551
2020-02-01T05:06:48,42.805,6.029,CST-1368DR,6860,9615,15245,0.096,551
2020-02-01T05:09:50,42.805,6.029,CST-1368DR,6860,9616,15246,0.096,551
2020-02-01T05:12:51,42.805,6.029,CST-1368DR,6859,9613,15244,0.096,551
2020-02-01T05:15:53,42.805,6.029,CST-1368DR,6859,9616,15249,0.095,551
2020-02-01T05:18:55,42.805,6.029,CST-1368DR,6860,9616,15247,0.096,551
2020-02-01T05:21:56,42.805,6.029,CST-1368DR,6860,9617,15248,0.095,551
2020-02-01T05:24:58,42.805,6.029,CST-1368DR,6859,9616,15248,0.095,551
2020-02-01T05:27:59,42.805,6.029,CST-1368DR,6859,9616,15249,0.095,551
2020-02-01T05:31:01,42.805,6.029,CST-1368DR,6859,9616,15248,0.095,551
2020-02-01T05:34:03,42.805,6.029,CST-1368DR,6859,9616,15248,0.095,551
2020-02-01T05:37:04,42.805,6.029,CST-1368DR,6859,9616,15249,0.095,551
2020-02-01T05:40:06,42.805,6.029,CST-1368DR,6859,9616,15248,0.095,551
2020-02-01T05:43:08,42.805,6.029,CST-1368DR,6859,9615,15246,0.096,551
2020-02-01T05:46:09,42.805,6.029,CST-1368DR,6859,9617,15249,0.095,551
2020-02-01T05:49:11,42.805,6.029,CST-1368DR,6859,9617,15250,0.095,551
2020-02-01T05:52:13,42.805,6.029,CST-1368DR,6859,9616,15249,0.095,551
2020-02-01T05:55:15,42.805,6.029,CST-1368DR,6859,9616,15248,0.095,551
2020-02-01T05:58:16,42.805,6.029,CST-1368DR,6859,9616,15248,0.095,550
2020-02-01T06:01:18,42.805,6.029,CST-1368DR,6859,9616,15248,0.095,551
2020-02-01T06:04:20,42.805,6.029,CST-1368DR,6859,9616,15249,0.095,551
2020-02-01T06:07:21,42.805,6.029,CST-1368DR,6859,9617,15249,0.095,551
2020-02-01T06:10:23,42.805,6.029,CST-1368DR,6859,9616,15248,0.095,551
2020-02-01T06:13:25,42.805,6.029,CST-1368DR,6859,9616,15248,0.095,551
2020-02-01T06:16:26,42.805,6.029,CST-1368DR,6859,9617,15249,0.095,551
2020-02-01T06:19:28,42.805,6.029,CST-1368DR,6859,9616,15249,0.095,551
2020-02-01T06:22:29,42.805,6.029,CST-1368DR,6859,9617,15249,0.095,551
2020-02-01T06:25:31,42.805,6.029,CST-1368DR,6859,9616,15248,0.095,550
2020-02-01T06:28:33,42.805,6.029,CST-1368DR,6859,9616,15248,0.095,551
2020-02-01T06:31:34,42.805,6.029,CST-1368DR,6859,9616,15248,0.095,551
2020-02-01T06:34:36,42.805,6.029,CST-1368DR,6859,9616,15248,0.095,551
2020-02-01T06:37:38,42.805,6.029,CST-1368DR,6859,9616,15249,0.095,551
2020-02-01T06:40:39,42.805,6.029,CST-1368DR,6859,9615,15247,0.096,551
2020-02-01T06:43:41,42.805,6.029,CST-1368DR,6859,9616,15248,0.095,551
2020-02-01T06:46:43,42.805,6.029,CST-1368DR,6859,9616,15248,0.095,551
2020-02-01T06:49:44,42.805,6.029,CST-1368DR,6859,9616,15248,0.095,551
2020-02-01T06:52:46,42.805,6.029,CST-1368DR,6859,9616,15248,0.095,551
2020-02-01T06:55:47,42.805,6.029,CST-1368DR,6859,9616,15248,0.095,551
2020-02-01T06:58:49,42.805,6.029,CST-1368DR,6859,9616,15248,0.095,551
2020-02-01T07:01:51,42.805,6.029,CST-1368DR,6859,9616,15248,0.095,551
2020-02-01T07:04:52,42.805,6.029,CST-1368DR,6859,9616,15248,0.095,551
2020-02-01T07:07:54,42.805,6.029,CST-1368DR,6859,9616,15248,0.095,551
2020-02-01T07:10:56,42.805,6.029,CST-1368DR,6859,9615,15247,0.096,551
2020-02-01T07:13:57,42.805,6.029,CST-1368DR,6859,9616,15248,0.095,551
2020-02-01T07:16:59,42.805,6.029,CST-1368DR,6859,9614,15246,0.096,551
2020-02-01T07:20:00,42.805,6.029,CST-1368DR,6859,9614,15244,0.096,551
2020-02-01T07:23:02,42.805,6.029,CST-1368DR,6859,9616,15248,0.095,551
2020-02-01T07:26:04,42.805,6.029,CST-1368DR,6859,9616,15248,0.095,551
2020-02-01T07:29:05,42.805,6.029,CST-1368DR,6859,9616,15248,0.095,551
2020-02-01T07:32:07,42.805,6.029,CST-1368DR,6859,9616,15248,0.095,551
2020-02-01T07:35:09,42.805,6.029,CST-1368DR,6859,9616,15248,0.095,551
2020-02-01T07:38:10,42.805,6.029,CST-1368DR,6859,9616,15248,0.095,551
2020-02-01T07:41:12,42.805,6.029,CST-1368DR,6859,9615,15247,0.096,551
2020-02-01T07:44:13,42.805,6.029,CST-1368DR,6859,9616,15248,0.095,551
2020-02-01T07:47:15,42.805,6.029,CST-1368DR,6859,9615,15246,0.096,551
2020-02-01T07:50:17,42.805,6.029,CST-1368DR,6859,9615,15247,0.096,551
2020-02-01T07:53:18,42.805,6.029,CST-1368DR,6859,9616,15249,0.095,551
2020-02-01T07:56:20,42.805,6.029,CST-1368DR,6859,9615,15247,0.096,551
2020-02-01T07:59:22,42.805,6.029,CST-1368DR,6859,9616,15248,0.095,551
2020-02-01T08:02:23,42.805,6.029,CST-1368DR,6859,9617,15249,0.095,551
2020-02-01T08:05:25,42.805,6.029,CST-1368DR,6859,9617,15250,0.095,551
2020-02-01T08:08:26,42.805,6.029,CST-1368DR,6859,9616,15248,0.095,551
2020-02-01T08:11:28,42.805,6.029,CST-1368DR,6859,9615,15247,0.096,551
2020-02-01T08:14:30,42.805,6.029,CST-1368DR,6859,9616,15248,0.095,551
2020-02-01T08:17:31,42.805,6.029,CST-1368DR,6859,9616,15248,0.095,551
2020-02-01T08:20:33,42.805,6.029,CST-1368DR,6859,9615,15247,0.096,551
2020-02-01T08:23:35,42.805,6.029,CST-1368DR,6859,9614,15245,0.096,551
2020-02-01T08:26:36,42.805,6.029,CST-1368DR,6859,9616,15249,0.095,551
2020-02-01T08:29:38,42.805,6.029,CST-1368DR,6859,9616,15248,0.095,551
2020-02-01T08:32:40,42.805,6.029,CST-1368DR,6859,9615,15247,0.096,551
2020-02-01T08:35:41,42.805,6.029,CST-1368DR,6859,9616,15248,0.095,551
2020-02-01T08:38:43,42.805,6.029,CST-1368DR,6859,9616,15248,0.095,551
2020-02-01T08:41:44,42.805,6.029,CST-1368DR,6859,9616,15248,0.095,551
2020-02-01T08:44:46,42.805,6.029,CST-1368DR,6858,9615,15248,0.095,551
2020-02-01T08:47:48,42.805,6.029,CST-1368DR,6858,9616,15250,0.095,551
2020-02-01T08:50:49,42.805,6.029,CST-1368DR,6858,9616,15250,0.095,551
2020-02-01T08:53:51,42.805,6.029,CST-1368DR,6858,9615,15249,0.095,551
2020-02-01T08:56:53,42.805,6.029,CST-1368DR,6858,9615,15249,0.095,550
2020-02-01T08:59:54,42.805,6.029,CST-1368DR,6858,9616,15251,0.095,551
2020-02-01T09:02:56,42.805,6.029,CST-1368DR,6859,9616,15248,0.095,551
2020-02-01T09:05:57,42.805,6.029,CST-1368DR,6858,9616,15251,0.095,551
2020-02-01T09:08:59,42.805,6.029,CST-1368DR,6858,9615,15249,0.095,551
2020-02-01T09:12:01,42.805,6.029,CST-1368DR,6858,9616,15250,0.095,551
2020-02-01T09:15:02,42.805,6.029,CST-1368DR,6858,9616,15250,0.095,551
2020-02-01T09:18:04,42.805,6.029,CST-1368DR,6858,9614,15248,0.095,551
2020-02-01T09:21:06,42.805,6.029,CST-1368DR,6858,9614,15248,0.095,551
2020-02-01T09:24:07,42.805,6.029,CST-1368DR,6858,9614,15247,0.096,551
2020-02-01T09:27:09,42.805,6.029,CST-1368DR,6858,9616,15250,0.095,550
2020-02-01T09:30:10,42.805,6.029,CST-1368DR,6858,9616,15250,0.095,551
2020-02-01T09:33:12,42.805,6.029,CST-1368DR,6858,9615,15249,0.095,550
2020-02-01T09:36:14,42.805,6.029,CST-1368DR,6858,9616,15250,0.095,551
2020-02-01T09:39:15,42.805,6.029,CST-1368DR,6858,9616,15250,0.095,551
2020-02-01T09:42:17,42.805,6.029,CST-1368DR,6858,9615,15249,0.095,551
2020-02-01T09:45:19,42.805,6.029,CST-1368DR,6858,9616,15251,0.095,551
2020-02-01T09:48:20,42.805,6.029,CST-1368DR,6858,9615,15248,0.095,551
2020-02-01T09:51:22,42.805,6.029,CST-1368DR,6858,9615,15249,0.095,551
2020-02-01T09:54:24,42.805,6.029,CST-1368DR,6858,9615,15249,0.095,551
2020-02-01T09:57:25,42.805,6.029,CST-1368DR,6858,9612,15244,0.096,551
2020-02-01T10:00:27,42.805,6.029,CST-1368DR,6858,9615,15249,0.095,550
2020-02-01T10:03:29,42.805,6.029,CST-1368DR,6858,9615,15249,0.095,551
2020-02-01T10:06:30,42.805,6.029,CST-1368DR,6858,9616,15250,0.095,551
2020-02-01T10:09:32,42.805,6.029,CST-1368DR,6858,9614,15247,0.096,551
2020-02-01T10:12:33,42.805,6.029,CST-1368DR,6858,9615,15249,0.095,551
2020-02-01T10:15:35,42.805,6.029,CST-1368DR,6858,9614,15247,0.096,551
2020-02-01T10:18:37,42.805,6.029,CST-1368DR,6858,9614,15247,0.096,551
2020-02-01T10:21:38,42.805,6.029,CST-1368DR,6858,9616,15250,0.095,551
2020-02-01T10:24:40,42.805,6.029,CST-1368DR,6858,9615,15249,0.095,551
2020-02-01T10:27:42,42.805,6.029,CST-1368DR,6858,9616,15250,0.095,551
2020-02-01T10:30:44,42.805,6.029,CST-1368DR,6858,9615,15249,0.095,551
2020-02-01T10:33:46,42.805,6.029,CST-1368DR,6858,9615,15249,0.095,551
2020-02-01T10:36:48,42.805,6.029,CST-1368DR,6858,9615,15249,0.095,551
2020-02-01T10:39:49,42.805,6.029,CST-1368DR,6858,9615,15249,0.095,551
2020-02-01T10:42:51,42.805,6.029,CST-1368DR,6858,9615,15249,0.095,551
2020-02-01T10:45:52,42.805,6.029,CST-1368DR,6858,9614,15247,0.096,551
2020-02-01T10:48:54,42.805,6.029,CST-1368DR,6858,9614,15248,0.095,551
2020-02-01T10:51:56,42.805,6.029,CST-1368DR,6858,9614,15248,0.095,551
2020-02-01T10:54:57,42.805,6.029,CST-1368DR,6858,9616,15250,0.095,550
2020-02-01T10:57:59,42.805,6.029,CST-1368DR,6858,9615,15249,0.095,551
2020-02-01T11:01:01,42.805,6.029,CST-1368DR,6858,9615,15249,0.095,551
2020-02-01T11:04:02,42.805,6.029,CST-1368DR,6858,9615,15249,0.095,551
2020-02-01T11:07:04,42.805,6.029,CST-1368DR,6858,9615,15249,0.095,551
2020-02-01T11:10:06,42.805,6.029,CST-1368DR,6858,9615,15249,0.095,551
2020-02-01T11:13:07,42.805,6.029,CST-1368DR,6858,9615,15248,0.095,551
2020-02-01T11:16:09,42.805,6.029,CST-1368DR,6858,9614,15247,0.096,551
2020-02-01T11:19:11,42.805,6.029,CST-1368DR,6858,9613,15246,0.096,551
2020-02-01T11:22:13,42.805,6.029,CST-1368DR,6858,9604,15231,0.100,551
2020-02-01T11:25:14,42.805,6.029,CST-1368DR,6858,9614,15248,0.095,551
2020-02-01T11:28:16,42.805,6.029,CST-1368DR,6858,9614,15247,0.096,550
2020-02-01T11:31:18,42.805,6.029,CST-1368DR,6858,9614,15247,0.096,551
2020-02-01T11:34:20,42.805,6.029,CST-1368DR,6858,9614,15247,0.096,551
2020-02-01T11:37:22,42.805,6.029,CST-1368DR,6858,9614,15247,0.096,551
2020-02-01T11:40:24,42.805,6.029,CST-1368DR,6858,9614,15247,0.096,551
2020-02-01T11:43:26,42.805,6.029,CST-1368DR,6858,9613,15246,0.096,551
2020-02-01T11:46:27,42.805,6.029,CST-1368DR,6858,9614,15247,0.096,551
2020-02-01T11:49:29,42.805,6.029,CST-1368DR,6858,9615,15248,0.095,551
2020-02-01T11:52:31,42.805,6.029,CST-1368DR,6858,9614,15247,0.096,551
2020-02-01T11:55:32,42.805,6.029,CST-1368DR,6858,9613,15246,0.096,551
2020-02-01T11:58:34,42.805,6.029,CST-1368DR,6858,9614,15247,0.096,551
2020-02-01T12:01:36,42.805,6.029,CST-1368DR,6858,9614,15247,0.096,550
2020-02-01T12:04:37,42.805,6.029,CST-1368DR,6858,9614,15247,0.096,551
2020-02-01T12:07:39,42.805,6.029,CST-1368DR,6858,9614,15247,0.096,551
2020-02-01T12:10:41,42.805,6.029,CST-1368DR,6858,9613,15245,0.096,551
2020-02-01T12:13:42,42.805,6.029,CST-1368DR,6858,9614,15247,0.096,551
2020-02-01T12:16:44,42.805,6.029,CST-1368DR,6858,9614,15247,0.096,551
2020-02-01T12:19:46,42.805,6.029,CST-1368DR,6858,9613,15245,0.096,551
2020-02-01T12:22:47,42.805,6.029,CST-1368DR,6858,9614,15247,0.096,551
2020-02-01T12:25:49,42.805,6.029,CST-1368DR,6858,9614,15247,0.096,551
2020-02-01T12:28:50,42.805,6.029,CST-1368DR,6858,9610,15241,0.097,551
2020-02-01T12:31:52,42.805,6.029,CST-1368DR,6858,9614,15247,0.096,551
2020-02-01T12:34:54,42.805,6.029,CST-1368DR,6858,9612,15244,0.096,551
2020-02-01T12:37:55,42.805,6.029,CST-1368DR,6858,9612,15245,0.096,551
2020-02-01T12:40:57,42.805,6.029,CST-1368DR,6858,9614,15247,0.096,551
2020-02-01T12:43:59,42.805,6.029,CST-1368DR,6858,9613,15246,0.096,551
2020-02-01T12:47:00,42.805,6.029,CST-1368DR,6857,9611,15244,0.096,551
2020-02-01T12:50:02,42.805,6.029,CST-1368DR,6857,9613,15248,0.095,551
2020-02-01T12:53:04,42.805,6.029,CST-1368DR,6858,9611,15243,0.097,551
2020-02-01T12:56:05,42.805,6.029,CST-1368DR,6858,9613,15245,0.096,551
2020-02-01T12:59:07,42.805,6.029,CST-1368DR,6858,9613,15246,0.096,551
2020-02-01T13:02:09,42.805,6.029,CST-1368DR,6858,9612,15243,0.097,551
2020-02-01T13:05:10,42.805,6.029,CST-1368DR,6858,9613,15245,0.096,551
2020-02-01T13:08:12,42.805,6.029,CST-1368DR,6857,9613,15247,0.096,551
2020-02-01T13:11:14,42.805,6.029,CST-1368DR,6857,9611,15245,0.096,551
2020-02-01T13:14:15,42.805,6.029,CST-1368DR,6858,9613,15246,0.096,551
2020-02-01T13:17:17,42.805,6.029,CST-1368DR,6857,9612,15245,0.096,551
2020-02-01T13:20:19,42.805,6.029,CST-1368DR,6858,9612,15245,0.096,551
2020-02-01T13:23:20,42.805,6.029,CST-1368DR,6857,9613,15248,0.095,551
2020-02-01T13:26:22,42.805,6.029,CST-1368DR,6857,9613,15247,0.096,551
2020-02-01T13:29:24,42.805,6.029,CST-1368DR,6857,9612,15246,0.096,551
2020-02-01T13:32:25,42.805,6.029,CST-1368DR,6857,9613,15247,0.096,551
2020-02-01T13:35:27,42.805,6.029,CST-1368DR,6857,9612,15245,0.096,551
2020-02-01T13:38:28,42.805,6.029,CST-1368DR,6857,9612,15246,0.096,551
2020-02-01T13:41:30,42.805,6.029,CST-1368DR,6857,9611,15244,0.096,551
2020-02-01T13:44:32,42.805,6.029,CST-1368DR,6857,9612,15247,0.096,551
2020-02-01T13:47:33,42.805,6.029,CST-1368DR,6857,9610,15243,0.097,551
2020-02-01T13:50:35,42.805,6.029,CST-1368DR,6857,9611,15245,0.096,551
2020-02-01T13:53:37,42.805,6.029,CST-1368DR,6857,9612,15245,0.096,551
2020-02-01T13:56:38,42.805,6.029,CST-1368DR,6857,9612,15247,0.096,551
2020-02-01T13:59:40,42.805,6.029,CST-1368DR,6857,9610,15243,0.097,551
2020-02-01T14:02:42,42.805,6.029,CST-1368DR,6857,9610,15243,0.097,551
2020-02-01T14:05:43,42.805,6.029,CST-1368DR,6857,9612,15245,0.096,551
2020-02-01T14:08:45,42.805,6.029,CST-1368DR,6857,9608,15239,0.098,551
2020-02-01T14:11:47,42.805,6.029,CST-1368DR,6857,9611,15245,0.096,551
2020-02-01T14:14:48,42.805,6.029,CST-1368DR,6857,9612,15246,0.096,551
2020-02-01T14:17:50,42.805,6.029,CST-1368DR,6857,9612,15246,0.096,551
2020-02-01T14:20:52,42.805,6.029,CST-1368DR,6857,9613,15247,0.096,551
2020-02-01T14:23:53,42.805,6.029,CST-1368DR,6857,9612,15247,0.096,551
2020-02-01T14:26:55,42.805,6.029,CST-1368DR,6857,9610,15243,0.097,551
2020-02-01T14:29:57,42.805,6.029,CST-1368DR,6857,9612,15246,0.096,551
2020-02-01T14:32:58,42.805,6.029,CST-1368DR,6857,9611,15245,0.096,551
2020-02-01T14:36:00,42.805,6.029,CST-1368DR,6857,9613,15247,0.096,550
2020-02-01T14:39:02,42.805,6.029,CST-1368DR,6857,9612,15246,0.096,551
2020-02-01T14:42:03,42.805,6.029,CST-1368DR,6857,9613,15247,0.096,551
2020-02-01T14:45:05,42.805,6.029,CST-1368DR,6857,9613,15248,0.095,551
2020-02-01T14:48:07,42.805,6.029,CST-1368DR,6857,9613,15247,0.096,551
2020-02-01T14:51:08,42.805,6.029,CST-1368DR,6857,9612,15246,0.096,551
2020-02-01T14:54:10,42.805,6.029,CST-1368DR,6857,9613,15247,0.096,551
2020-02-01T14:57:12,42.805,6.029,CST-1368DR,6857,9613,15247,0.096,551
2020-02-01T15:00:13,42.805,6.029,CST-1368DR,6857,9613,15248,0.095,551
2020-02-01T15:03:15,42.805,6.029,CST-1368DR,6857,9611,15244,0.096,551
2020-02-01T15:06:16,42.805,6.029,CST-1368DR,6857,9612,15246,0.096,551
2020-02-01T15:09:18,42.805,6.029,CST-1368DR,6857,9612,15246,0.096,551
2020-02-01T15:12:20,42.805,6.029,CST-1368DR,6857,9612,15246,0.096,551
2020-02-01T15:15:21,42.805,6.029,CST-1368DR,6857,9612,15247,0.096,551
2020-02-01T15:18:23,42.805,6.029,CST-1368DR,6857,9613,15247,0.096,551
2020-02-01T15:21:25,42.805,6.029,CST-1368DR,6857,9613,15247,0.096,551
2020-02-01T15:24:26,42.805,6.029,CST-1368DR,6857,9612,15246,0.096,551
2020-02-01T15:27:28,42.805,6.029,CST-1368DR,6857,9613,15247,0.096,551
2020-02-01T15:30:30,42.805,6.029,CST-1368DR,6857,9612,15247,0.096,551
2020-02-01T15:33:31,42.805,6.029,CST-1368DR,6857,9612,15247,0.096,551
2020-02-01T15:36:33,42.805,6.029,CST-1368DR,6857,9610,15242,0.097,551
2020-02-01T15:39:35,42.805,6.029,CST-1368DR,6857,9613,15248,0.095,551
2020-02-01T15:42:36,42.805,6.029,CST-1368DR,6857,9611,15245,0.096,551
2020-02-01T15:45:38,42.805,6.029,CST-1368DR,6857,9611,15244,0.096,551
2020-02-01T15:48:40,42.805,6.029,CST-1368DR,6857,9612,15245,0.096,551
2020-02-01T15:51:41,42.805,6.029,CST-1368DR,6857,9612,15246,0.096,551
2020-02-01T15:54:43,42.805,6.029,CST-1368DR,6857,9612,15246,0.096,551
2020-02-01T15:57:45,42.805,6.029,CST-1368DR,6857,9611,15245,0.096,551
2020-02-01T16:00:46,42.805,6.029,CST-1368DR,6857,9612,15246,0.096,551
2020-02-01T16:03:48,42.805,6.029,CST-1368DR,6857,9611,15244,0.096,551
2020-02-01T16:06:50,42.805,6.029,CST-1368DR,6857,9612,15246,0.096,551
2020-02-01T16:09:51,42.805,6.029,CST-1368DR,6857,9612,15245,0.096,551
2020-02-01T16:12:53,42.805,6.029,CST-1368DR,6857,9610,15242,0.097,551
2020-02-01T16:15:55,42.805,6.029,CST-1368DR,6857,9611,15245,0.096,551
2020-02-01T16:18:56,42.805,6.029,CST-1368DR,6857,9612,15246,0.096,551
2020-02-01T16:21:58,42.805,6.029,CST-1368DR,6857,9612,15246,0.096,551
2020-02-01T16:25:00,42.805,6.029,CST-1368DR,6857,9612,15246,0.096,551
2020-02-01T16:28:01,42.805,6.029,CST-1368DR,6857,9612,15245,0.096,551
2020-02-01T16:31:03,42.805,6.029,CST-1368DR,6857,9612,15246,0.096,551
2020-02-01T16:34:05,42.805,6.029,CST-1368DR,6857,9611,15245,0.096,551
2020-02-01T16:37:06,42.805,6.029,CST-1368DR,6857,9612,15246,0.096,551
2020-02-01T16:40:08,42.805,6.029,CST-1368DR,6857,9612,15246,0.096,551
2020-02-01T16:43:10,42.805,6.029,CST-1368DR,6857,9612,15247,0.096,551
2020-02-01T16:46:12,42.805,6.029,CST-1368DR,6857,9612,15246,0.096,551
2020-02-01T16:49:13,42.805,6.029,CST-1368DR,6857,9613,15247,0.096,551
2020-02-01T16:52:15,42.805,6.029,CST-1368DR,6857,9610,15243,0.097,551